This is the latest recevied weather packets stored in our database for station/object KV9E. If no packets are shown the sender has not sent any weather packets the latest 10 day(s).
| Time | Temp. | Humidity | Pressure | Rain* | Wind** | Luminosity | Snow |
|---|---|---|---|---|---|---|---|
| 1787860441 | 28.89° C | 60% | 1014.9 hPa | 0 mm | - | 96 W/m² | - |
| 1787860141 | 28.89° C | 61% | 1015 hPa | 0 mm | - | 447 W/m² | - |
| 1787859836 | 28.89° C | 61% | 1015 hPa | 0 mm | - | 574 W/m² | - |
| 1787859531 | 28.89° C | 60% | 1014.9 hPa | 0 mm | - | 573 W/m² | - |
| 1787859226 | 28.89° C | 61% | 1015 hPa | 0 mm | - | 583 W/m² | - |
| 1787858923 | 28.89° C | 60% | 1015 hPa | 0 mm | - | 581 W/m² | - |
| 1787858618 | 28.33° C | 61% | 1014.9 hPa | 0 mm | - | 607 W/m² | - |
| 1787858317 | 29.44° C | 61% | 1015.1 hPa | 0 mm | - | 595 W/m² | - |
| 1787857703 | 28.89° C | 62% | 1015 hPa | 0 mm | - | 629 W/m² | - |
| 1787857399 | 28.89° C | 59% | 1015.2 hPa | 0 mm | - | 613 W/m² | - |
| 1787857096 | 27.22° C | 67% | 1015.3 hPa | 0 mm | - | 634 W/m² | - |
| 1787856799 | 26.67° C | 69% | 1015.2 hPa | 0 mm | - | 677 W/m² | - |
| 1787856486 | 26.67° C | 67% | 1015.5 hPa | 0 mm | - | 116 W/m² | - |
| 1787856182 | 27.78° C | 65% | 1015.3 hPa | 0 mm | - | 86 W/m² | - |
| 1787855881 | 28.33° C | 62% | 1015.4 hPa | 0 mm | - | 659 W/m² | - |
| 1787855579 | 27.78° C | 63% | 1015.7 hPa | 0 mm | - | 643 W/m² | - |
| 1787855272 | 27.78° C | 62% | 1015.7 hPa | 0 mm | - | 638 W/m² | - |
| 1787854968 | 27.78° C | 63% | 1015.6 hPa | 0 mm | - | 615 W/m² | - |
| 1787854663 | 27.78° C | 62% | 1015.8 hPa | 0 mm | - | 621 W/m² | - |
| 1787854357 | 27.22° C | 64% | 1015.7 hPa | 0 mm | - | 617 W/m² | - |
| 1787854052 | 27.22° C | 65% | 1015.6 hPa | 0 mm | - | 619 W/m² | - |
| 1787853751 | 27.22° C | 65% | 1016.1 hPa | 0 mm | - | 619 W/m² | - |
| 1787853450 | 26.67° C | 67% | 1016 hPa | 0 mm | - | 617 W/m² | - |
| 1787853150 | 26.67° C | 68% | 1015.9 hPa | 0 mm | - | 614 W/m² | - |
| 1787852845 | 27.22° C | 66% | 1016.1 hPa | 0 mm | - | 620 W/m² | - |
* Rain latest hour (hover to see other rain measurements)
** Current wind speed in m/s (hover to see current wind gust speed)